Regional Weather Roundup
Issued by NWS

Home | Current Version | Previous Version | Text Only | Print | Product List | Glossary On
Versions: 1 2 3 4 5 6 7 8 9 10 11 12 13 14 15 16 17 18 19 20 21 22 23 24 25 26 27 28 29 30 31 32 33 34 35 36 37 38 39 40 41 42 43 44 45 46 47 48 49 50
000
ASUS42 KTBW 240316
RWRFL
FLORIDA REGIONAL WEATHER ROUNDUP
NATIONAL WEATHER SERVICE TAMPA BAY RUSKIN FL
1000 PM EST MON JAN 23 2017

NOTE: "FAIR" INDICATES FEW OR NO CLOUDS BELOW 12,000 FEET WITH NO
SIGNIFICANT WEATHER AND/OR OBSTRUCTIONS TO VISIBILITY.

FLZ001>010-012>015-112-114-115-240400-
PANHANDLE FLORIDA

CITY           SKY/WX    TMP DP  RH WIND       PRES   REMARKS
PENSACOLA      CLEAR     60  48  64 NW9       29.83R
PENSACOLA NAS  CLEAR     60  48  64 NW6       29.83R
MILTON NAS     CLEAR     55  48  77 W6        29.84
CRESTVIEW      CLEAR     58  47  66 NW8       29.83R
DUKE FIELD     CLEAR     58  47  67 W8        29.81R
VALPARAISO     CLEAR     57  47  68 NW10      29.83R
TRI COUNTY     FAIR      57  50  77 W3        29.80R
PANAMA CITY    FAIR      61  48  62 W10       29.79R
TYNDALL AFB    CLEAR     62  48  58 NW15      29.80R
APALACHICOLA   CLEAR     63  51  65 NW12      29.78R

STATION/POSITION SKY/WX   TEMP    WIND        PRES    WAVE   SWELL
                          AIR SEA DIR/SP/G            HT/PER HT/PER
                          (F)     (DEG/KT/KT) (MB)    (FT/S) (FT/S)
30.1N   87.6W              65 65  310/ 19/ 23 1010.2R   4/ 6   2/ 8
28.8N   86.0W              69 74              1009.8R  12/ 9   7/11
PANAMA CITY BEAC           64 65  300/ 14/ 16 1009.5R
TOWER C                    66     310/ 29/ 32 1008.7R
28.5N   84.5W              69 70  300/ 25/ 29 1008.0R  14/11  11/11

$$
FLZ011-016>038-118-127-128-134-139-239-240400-
NORTH FLORIDA

CITY           SKY/WX    TMP DP  RH WIND       PRES   REMARKS
MARIANNA       CLEAR     59  48  67 W8        29.77R
TALLAHASSEE    CLEAR     60  48  64 W14       29.75R
PERRY          CLEAR     60  48  64 W10G16    29.74R
CROSS CITY     CLEAR     63  50  63 W13G22    29.73R
LAKE CITY      FAIR      54  50  87 W10       29.69R
GAINESVILLE    CLEAR     58  48  69 W13       29.69R
WILLISTON      CLEAR     59  52  77 W6        29.72R
PALATKA        FAIR      54  50  87 W5        29.68R
MAYPORT NAS    CLEAR     59  49  69 W9        29.63R
JACKSONVILLE   CLEAR     56  49  77 W9        29.64R
JAX NAS        CLEAR     58  48  69 W10       29.66R
FERNANDINA BEA FAIR      61  50  67 W10       29.62R
ST AUGUSTINE   CLEAR     59  49  69 W7        29.66R

STATION/POSITION SKY/WX   TEMP    WIND        PRES    WAVE   SWELL
                          AIR SEA DIR/SP/G            HT/PER HT/PER
                          (F)     (DEG/KT/KT) (MB)    (FT/S) (FT/S)
SHELL POINT      NOT AVBL
KEATON BEACH               64     290/ 21/ 24 1006.7R
CEDAR KEY                  64     300/ 16/ 21 1006.2R
FERNANDINA                 59 65  260/ 10/ 14 1003.9R
30.7N   81.3W                 62                N/A     3/ 3
MAYPORT                    60 64  280/ 11/ 15 1003.7R
31.4N   80.9W              60 60  260/ 21/ 27  999.4    4/ 5   2/14
ST AUGUSTINE               59 63  270/  7/ 10 1005.0R

$$
FLZ040-043>046-052-053-057-058-063-144-240400-
INTERIOR CENTRAL FLORIDA

CITY           SKY/WX    TMP DP  RH WIND       PRES   REMARKS
OCALA          CLEAR     59  48  67 W7        29.71R
THE VILLAGES     N/A     57  57 100 MISG      29.62R
LEESBURG       CLEAR     60  53  77 W7        29.72R
SANFORD        CLEAR     60  51  72 W14       29.69R
ORLANDO EXEC   CLEAR     61  54  77 W14       29.70R
ORLANDO INTL   CLEAR     61  53  75 W13       29.71R
KISSIMMEE      CLEAR     60  54  80 W13       29.73R
WINTER HAVEN   CLEAR     61  52  72 W12       29.74R
LAKELAND       CLEAR     61  54  77 W13       29.74R
BARTOW         FAIR      61  54  77 W13       29.74R
OKEECHOBEE     CLOUDY    63  54  72 W15       29.73R

$$
FLZ041-047-054-059-064-141-147-240400-
EAST CENTRAL FLORIDA

CITY           SKY/WX    TMP DP  RH WIND       PRES   REMARKS
DAYTONA BEACH  PTCLDY    59  51  75 W10       29.68R
DELAND         CLEAR     59  50  72 W7        29.69R
NEW SMYRNA BEA MOCLDY    61  52  72 W16G30    29.67R
JFK SPACE CTR  CLEAR     62  51  68 NW15G23   29.68R
CAPE CANAVERAL CLEAR     63  51  65 NW25      29.67R
PATRICK AFB    CLEAR     63  54  72 NW17      29.69R
MELBOURNE      PTCLDY    61  53  75 W18G28    29.70R
VERO BEACH     MOCLDY    64  54  69 W17G28    29.71R
FT PIERCE      CLOUDY    64  55  72 W16G25    29.71R
STUART         PTCLDY    68  57  68 W15       29.68

STATION/POSITION SKY/WX   TEMP    WIND        PRES    WAVE   SWELL
                          AIR SEA DIR/SP/G            HT/PER HT/PER
                          (F)     (DEG/KT/KT) (MB)    (FT/S) (FT/S)
TRIDENT PIER               63 70  290/ 16/ 24 1006.1R
28.4N   80.5W                 73                N/A     2/14   2/14
27.5N   80.2W                 74                N/A     4/13   2/13

$$
FLZ050-056-061-142-242-148-248-149-249-151-251-155-255-
160-260-240400-
WEST CENTRAL FLORIDA

CITY           SKY/WX    TMP DP  RH WIND       PRES   REMARKS
CRYSTAL RIVER  FAIR      64  54  68 W13G22    29.74R
INVERNESS      FAIR      63  55  77 CALM      29.74R
BROOKSVILLE    CLEAR     64  54  69 W18G25    29.75R
CLEARWATER AIR MOCLDY    64  55  72 NW18G25   29.77R
ST PETE CLEARW PTCLDY    66  55  67 NW21G26   29.76R
TAMPA INTL     PTCLDY    66  54  65 NW15G24   29.76R
TAMPA EXEC     CLEAR     64  54  68 NW9       29.76R
PLANT CITY     CLEAR     64  55  72 W10G17    29.76R
PETER O KNIGHT PTCLDY    68  59  73 NW10G21   29.76R
ST PETERSBURG  PTCLDY    66  56  70 NW15G22   29.74R
SARASOTA       MOCLDY    66  56  70 NW16G25   29.77R
VENICE         MOCLDY    68  59  73 NW25G35   29.79R

STATION/POSITION SKY/WX   TEMP    WIND        PRES    WAVE   SWELL
                          AIR SEA DIR/SP/G            HT/PER HT/PER
                          (F)     (DEG/KT/KT) (MB)    (FT/S) (FT/S)
27.3N   84.2W                 76                N/A    15/11  10/11
CLEARWATER BEACH           67 69  300/ 25/ 29 1008.0R
MIDDLE TAMPA BAY           67     320/ 24/ 32 1008.1R
VENICE                     69 69  310/ 24/ 26 1007.1R

$$
FLZ066-069-070-075>078-162-262-165-265-240400-
SOUTHWEST FLORIDA AND KEYS

CITY           SKY/WX    TMP DP  RH WIND       PRES   REMARKS
PUNTA GORDA    CLEAR     66  56  70 NW16      29.78R
FT MYERS       MOCLDY    69  59  70 NW13G23   29.76R
SOUTHWEST INTL PTCLDY    68  57  68 NW12      29.77R
NAPLES         CLOUDY    70  58  65 NW20G33   29.77R
MARCO ISLAND   PTCLDY    70  57  64 NW15G26   29.78R
MARATHON       PTCLDY    74  60  61 W18G36    29.80R
KEY WEST NAS   PTCLDY    72  60  66 NW21G30   29.82R
KEY WEST INTL  NOT AVBL

STATION/POSITION SKY/WX   TEMP    WIND        PRES    WAVE   SWELL
                          AIR SEA DIR/SP/G            HT/PER HT/PER
                          (F)     (DEG/KT/KT) (MB)    (FT/S) (FT/S)
NAPLES                        71              1008.1R
26.0N   85.6W              70 74  310/ 19/ 23 1011.8R  13/11  10/11
DRY TORTUGAS               73     300/ 22/ 24 1010.0R
SAND KEY                   73     320/ 27/ 32 1010.3R
LONG KEY                   72 73  300/ 27/ 30 1008.4R

$$
FLZ067-068-071>074-168-172>174-240400-
SOUTHEAST FLORIDA

CITY           SKY/WX    TMP DP  RH WIND       PRES   REMARKS
W PALM BEACH   PTCLDY    64  56  75 W15       29.72R
BOCA RATON     PTCLDY    66  59  77 W16G24    29.72R
FT LAUDER-EXEC PTCLDY    66  57  72 W16       29.73R
FT LAUDERDALE  PTCLDY    67  58  72 W17G24    29.73R
POMPANO BEACH  PTCLDY    67  58  72 W15       29.72R
PEMBROKE PINES MOCLDY    67  59  75 W14       29.76R
OPA LOCKA      CLEAR     67  58  72 W13       29.75R
MIAMI          PTCLDY    69  59  70 W10G20    29.75R
WEST KENDALL   PTCLDY    64  58  80 W10       29.76R
HOMESTEAD      CLEAR     66  62  85 W9        29.76R

STATION/POSITION SKY/WX   TEMP    WIND        PRES    WAVE   SWELL
                          AIR SEA DIR/SP/G            HT/PER HT/PER
                          (F)     (DEG/KT/KT) (MB)    (FT/S) (FT/S)
PORT EVERGLADES            69     270/ 14/ 24 1006.4R
VIRGINIA KEY               69 79  280/ 12/ 18 1007.6R
LAKE WORTH                 66 74  280/ 14/ 20 1005.6R
FOWEY ROCKS                69 74  280/ 26/ 29 1007.3R

$$




USA.gov is the U.S. government's official web portal to all federal, state and local government web resources and services.